Location: Poughquag
(41.6090°N, 73.6820°W)
Time: 09:15:25
(UTC-04:00)

S-56A Canister/Altair - All Passes

Search period start: 14 October 2019 00:00
Search period end: 24 October 2019 00:00
Orbit: 633 x 2499 km, 38.9° (Epoch: 13 October)

Date Brightness Start Highest point End Pass type
(mag) Time Alt. Az. Time Alt. Az. Time Alt. Az.
14 Oct - 03:12:34 10° S 03:17:11 19° SE 03:23:02 10° E visible
14 Oct - 05:12:35 10° SW 05:20:05 56° SSE 05:31:25 10° E visible
14 Oct - 07:15:37 10° W 07:25:05 79° S 07:38:58 10° E daylight
14 Oct - 09:19:44 10° W 09:31:07 67° SSW 09:45:55 10° ESE daylight
14 Oct - 11:25:01 10° W 11:36:50 39° SW 11:50:06 10° SSE daylight
14 Oct - 13:35:44 10° WSW 13:41:15 13° SW 13:46:49 10° SSW daylight
15 Oct - 02:41:17 10° SSE 02:44:41 14° SE 02:48:41 10° E visible
15 Oct - 04:40:17 10° SW 04:47:13 50° SSE 04:57:38 10° E visible
15 Oct - 06:43:02 10° WSW 06:51:52 77° S 07:05:07 10° E daylight
15 Oct - 08:46:55 10° W 08:57:42 70° SSW 09:12:17 10° ESE daylight
15 Oct - 10:51:51 10° W 11:03:27 42° SSW 11:17:02 10° SSE daylight
15 Oct - 13:00:54 10° W 13:08:06 16° SW 13:15:32 10° SSW daylight
16 Oct - 02:11:20 10° SE 02:12:12 10° SE 02:13:07 10° ESE visible
16 Oct - 04:08:05 10° SW 04:14:27 44° SSE 04:23:54 10° E visible
16 Oct - 06:10:30 10° WSW 06:18:43 76° S 06:31:18 10° E visible
16 Oct - 08:14:11 10° W 08:24:20 72° SSW 08:38:36 10° ESE daylight
16 Oct - 10:18:47 10° W 10:30:04 45° SSW 10:43:50 10° SE daylight
16 Oct - 12:26:40 10° W 12:34:55 18° SW 12:43:39 10° S daylight
17 Oct - 03:35:56 10° SSW 03:41:46 37° SE 03:50:11 10° E visible
17 Oct - 05:38:02 10° WSW 05:45:41 73° S 05:57:29 10° E visible
17 Oct - 07:41:31 10° W 07:51:02 73° S 08:04:51 10° ESE daylight
17 Oct - 09:45:50 10° W 09:56:42 48° SSW 10:10:32 10° SE daylight
17 Oct - 11:52:49 10° W 12:01:42 21° SW 12:11:24 10° S daylight
18 Oct - 03:03:52 10° SSW 03:09:09 31° SE 03:16:31 10° E visible
18 Oct - 05:05:37 10° WSW 05:12:43 69° SSE 05:23:44 10° E visible
18 Oct - 07:08:54 10° W 07:17:48 74° S 07:31:04 10° ESE daylight
18 Oct - 09:12:58 10° W 09:23:21 51° SSW 09:37:08 10° SE daylight
18 Oct - 11:19:15 10° W 11:28:28 23° SW 11:38:53 10° S daylight
19 Oct - 02:31:55 10° SSW 02:36:37 26° SE 02:42:52 10° E visible
19 Oct - 04:33:16 10° WSW 04:39:50 65° SSE 04:50:02 10° E visible
19 Oct - 06:36:22 10° W 06:44:39 75° S 06:57:17 10° ESE visible
19 Oct - 08:40:12 10° W 08:50:04 53° SSW 09:03:38 10° SE daylight
19 Oct - 10:45:53 10° W 10:55:14 26° SW 11:06:10 10° S daylight
20 Oct - 02:00:05 10° S 02:04:07 21° SE 02:09:13 10° E visible
20 Oct - 04:00:56 10° WSW 04:07:03 60° SSE 04:16:23 10° E visible
20 Oct - 06:03:52 10° W 06:11:35 76° S 06:23:30 10° E visible
20 Oct - 08:07:30 10° W 08:16:49 56° SSW 08:30:04 10° SE daylight
20 Oct - 10:12:41 10° W 10:21:59 28° SW 10:33:17 10° SSE daylight
21 Oct - 01:28:27 10° S 01:31:39 16° SE 01:35:28 10° E visible
21 Oct - 03:28:39 10° SW 03:34:20 54° SSE 03:42:50 10° E visible
21 Oct - 05:31:24 10° W 05:38:36 76° S 05:49:46 10° E visible
21 Oct - 07:34:52 10° W 07:43:38 58° SSW 07:56:28 10° SE daylight
21 Oct - 09:39:39 10° W 09:48:46 30° SW 10:00:16 10° SSE daylight
22 Oct - 00:57:15 10° SSE 00:59:13 12° SE 01:01:24 10° ESE night (unlit)
22 Oct - 02:56:25 10° SW 03:01:42 48° SSE 03:09:21 10° E visible
22 Oct - 04:59:00 10° W 05:05:40 75° S 05:16:03 10° E visible
22 Oct - 07:02:18 10° W 07:10:31 61° SSW 07:22:49 10° ESE daylight
22 Oct - 09:06:42 10° W 09:15:34 33° SSW 09:27:08 10° SSE daylight
23 Oct - 02:24:14 10° SW 02:29:07 41° SSE 02:35:56 10° E visible
23 Oct - 04:26:36 10° W 04:32:50 73° S 04:42:25 10° E visible
23 Oct - 06:29:47 10° W 06:37:28 63° SSW 06:49:10 10° ESE visible
23 Oct - 08:33:53 10° W 08:42:25 35° SSW 08:53:54 10° SSE daylight
23 Oct - 10:43:21 10° WSW 10:47:06 12° SW 10:51:07 10° SSW daylight
